Regional Weather Roundup
Issued by NWS

Home | Current Version | Previous Version | Text Only | Print | Product List | Glossary Off
Versions: 1 2 3 4 5 6 7 8 9 10 11 12 13 14 15 16 17 18 19 20 21 22 23 24 25 26 27 28 29 30 31 32 33 34 35 36 37 38 39 40 41 42 43 44 45 46 47 48 49 50

000
ASUS43 KIND 261609
RWRIN

WEATHER ROUNDUP FOR INDIANA
NATIONAL WEATHER SERVICE INDIANAPOLIS IN
1100 AM EST MON JAN 26 2015

NOTE: "FAIR" INDICATES FEW OR NO CLOUDS BELOW 12,000 FEET WITH NO
SIGNIFICANT WEATHER AND/OR OBSTRUCTIONS TO VISIBILITY.

* - STATION DOES NOT REPORT WEATHER SUCH AS PRECIPITATION OR FOG.

+ - STATION NOT QUALITY CONTROLLED BY THE NATIONAL WEATHER SERVICE.
    USE DATA WITH CAUTION...ESPECIALLY DEWPOINT AND RELATIVE
    HUMIDITY OBSERVATIONS.

INZ001>003-010>013-019-020-261700-
NORTHWEST INDIANA

CITY           SKY/WX    TMP DP  RH WIND       PRES   REMARKS
GARY /AIRPORT/ MOSUNNY   23   9  54 SW5       29.99R WCI  17
KNOX *+        SUNNY     17   2  52 CALM      29.96S
LA PORTE +     SUNNY     20  13  74 CALM      29.97R
MICHIGAN CITY+ SUNNY     21   9  58 CALM      29.98R
MONTICELLO +   SUNNY     18  11  75 CALM      29.96F
RENSSELAER +   SUNNY     21  18  86 W3        29.99R
VALPARAISO     SUNNY     17  11  77 S5        29.97R WCI  10

$$

LMZ046-743>745-261700-
SOUTHERN LAKE MICHIGAN

STATION/POSITION TIME  TEMP WIND        PRES
                       AIR  DIR/SP/G
                 (UTC) (F)  (DEG/KT/KT) (MB)
MICHIGAN CITY    1600   18  160/  4/  5   N/A

$$

INZ004-005-014>016-021>024-261700-
NORTH CENTRAL INDIANA

CITY           SKY/WX    TMP DP  RH WIND       PRES   REMARKS
ELKHART        SUNNY     18   7  62 CALM      29.97R
GOSHEN         MOSUNNY   16  10  77 E6        29.95R WCI   7
LOGANSPORT +   MOSUNNY   18  10  73 CALM      29.98R
PERU/GRISSOM   PTSUNNY   16   9  74 MISG      29.96R
ROCHESTER +    PTSUNNY   21  14  73 CALM      29.97R
SOUTH BEND     MOSUNNY   18  10  71 CALM      29.97R
WARSAW +       PTSUNNY   18  10  73 CALM      29.95

$$

INZ006>009-017-018-025>027-261700-
NORTHEAST INDIANA

CITY           SKY/WX    TMP DP  RH WIND       PRES   REMARKS
ANGOLA *+      SUNNY     14   7  73 CALM      29.92S
AUBURN +       MOSUNNY   19   9  63 N3        29.95S
FORT WAYNE     PTSUNNY   17   8  67 CALM      29.95S
HUNTINGTON +   MOSUNNY   14   4  65 CALM      29.95S

$$

INZ028-029-035-036-043>045-051>053-261700-
WEST CENTRAL INDIANA

CITY           SKY/WX    TMP DP  RH WIND       PRES   REMARKS
CRAWFORDSVL +  MOSUNNY   23  14  68 W8        29.97  WCI  14
GREENCASTLE +  CLOUDY    23  16  74 NW6       29.97S WCI  16
LAFAYETTE      MOSUNNY   21  13  71 W3        29.98S
TERRE HAUTE    CLOUDY    27  21  78 NW6       29.99S WCI  20

$$

INZ030>032-037>040-046>048-054>057-064-065-261700-
CENTRAL INDIANA

CITY           SKY/WX    TMP DP  RH WIND       PRES   REMARKS
ANDERSON       SUNNY     19   9  63 N12       29.96R WCI   7
CP ATTERBURY + PTSUNNY   27  19  74 NW8       29.98R WCI  18
COLUMBUS       SUNNY     25  16  68 N7        29.97S WCI  17
INDIANAPOLIS   PTSUNNY   24  18  77 W9        29.96R WCI  14
-EAGLE CREEK   PTSUNNY   24  16  71 W8        29.95R WCI  15
KOKOMO *+      PTSUNNY   16   9  73 CALM      29.96R
MARION +       PTSUNNY   17   9  72 CALM      29.96R
MT COMFORT *+  MOSUNNY   23   9  54 NW6       29.96R WCI  16
SHELBYVILLE    MOSUNNY   24  15  68 NW8       29.95S WCI  15
ZIONSVILLE +   MOSUNNY   24  14  67 NW6       29.95S WCI  17

$$

INZ033-034-041-042-049-050-058-059-261700-
EAST CENTRAL INDIANA

CITY           SKY/WX    TMP DP  RH WIND       PRES   REMARKS
MUNCIE         MOSUNNY   18  10  71 NE3       29.94S

$$

INZ060-061-067>069-081>083-085>088-261700-
SOUTHWEST INDIANA

CITY           SKY/WX    TMP DP  RH WIND       PRES   REMARKS
EVANSVILLE     CLOUDY    32  24  72 NW7       30.04R WCI  26
HUNTINGBURG *+ CLOUDY    30  25  80 NW9       30.01R WCI  22
WASHINGTON +   CLOUDY    29  22  75 NW13      30.01R WCI  19

$$

INZ062-063-066-070>080-084-089>092-261700-
SOUTH CENTRAL AND SOUTHEAST INDIANA

CITY           SKY/WX    TMP DP  RH WIND       PRES   REMARKS
BLOOMINGTON    CLOUDY    26  20  77 NW7       29.96R WCI  18
SEYMOUR +      MOSUNNY   28  19  69 N8        29.98  WCI  20

$$



USA.gov is the U.S. government's official web portal to all federal, state and local government web resources and services.